[[{"header":{"parameterUnit":"m.s-1","parameterCategory":1,"la1":30.2991,"la2":30.254,"lo1":-89.0895,"lo2":-89.0444,"dy":0.0017,"dx":0.0017,"nx":28,"ny":28,"refTime":"2024-03-13T21:00:00:Z","depth":0,"parameterNumber":2,"parameterNumberName":"U-component_of_WINDS"},"data":[0,0,0,0,0,0,0,0,0,0,0,0,0,0,0,0,0,0,0,0,0,0,0,0,0,0,0,0,0,0,0,0,0,0,0,0,0,0,0,0,0,0,0,0,0,0,0,0,0,0,0,0,0,0,0,0,0,0,-3.111,-3.1111,0,-3.1189,-3.119,-3.1191,-3.1148,-3.1146,-3.1144,-3.1142,-3.1223,-3.1228,-3.1232,0,0,0,0,0,0,0,0,0,0,0,0,0,-3.0923,-3.0927,-3.111,-3.1111,-3.1112,-3.1189,-3.119,-3.1191,-3.1148,-3.1146,-3.1143,-3.1141,-3.1222,-3.1227,-3.1232,0,0,0,0,0,0,0,0,0,0,0,0,0,-3.1004,-3.0928,-3.111,-3.11,-3.11,-3.1189,-3.119,-3.1191,-3.1149,-3.1146,-3.1142,-3.1139,-3.122,-3.1227,-3.1233,-3.1336,0,0,-3.1252,-3.1255,0,0,0,0,0,0,0,0,-3.0999,-3.1011,-3.11,-3.1101,-3.1101,-3.1155,-3.1154,-3.124,-3.115,-3.113,-3.1142,-3.1138,-3.1203,-3.1211,-3.1233,-3.134,-3.1344,-3.1252,-3.1256,-3.1259,-3.1261,0,0,0,0,0,0,0,-3.0994,-3.1007,-3.1141,-3.1102,-3.1102,-3.1092,-3.11,-3.117,-3.1184,-3.1132,-3.1129,-3.1139,-3.1203,-3.1227,-3.1235,-3.1345,-3.1252,-3.1258,-3.1262,-3.1264,-3.1542,-3.1546,0,0,0,0,0,0,-3.0989,-3.1003,-3.1139,-3.1143,-3.1041,-3.1098,-3.1107,-3.1141,-3.1183,-3.1186,-3.1141,-3.1136,-3.1218,-3.1227,-3.1237,-3.1361,-3.1259,-3.1265,-3.1268,-3.1539,-3.1543,-3.1547,0,0,0,0,0,0,-3.0985,-3.1001,-3.1135,-3.1072,-3.1089,-3.1105,-3.1143,-3.1144,-3.1168,-3.119,-3.1193,-3.1163,-3.1216,-3.1228,-3.1312,-3.1364,-3.1268,-3.1273,-3.1535,-3.154,-3.1545,-3.1611,0,0,0,0,0,0,-3.098,-3.1,-3.1039,-3.1074,-3.1092,-3.1208,-3.1147,-3.1148,-3.1179,-3.1173,-3.1212,-3.1215,-3.1214,-3.1303,-3.1318,-3.1371,-3.1278,-3.153,-3.1537,-3.1543,-3.1604,-3.1618,-3.1629,0,0,0,0,0,-3.0973,-3.1054,-3.1041,-3.1057,-3.1141,-3.1211,-3.1222,-3.1219,-3.1183,-3.1223,-3.1238,-3.1214,-3.1356,-3.1312,-3.1329,-3.1384,-3.1527,-3.1535,-3.1543,-3.1598,-3.1615,-3.1629,0,0,0,0,0,0,-3.1024,-3.1058,-3.1044,-3.1138,-3.1173,-3.1204,-3.1253,-3.1237,-3.1282,-3.1275,-3.127,-3.1279,-3.1366,-3.1384,-3.1334,-3.1487,-3.1436,-3.1448,-3.1472,-3.1488,-3.1501,-3.1494,-3.1284,0,0,0,0,0,-3.1047,-3.1101,-3.1127,-3.1208,-3.1226,-3.1237,-3.1268,-3.1263,-3.1298,-3.1312,-3.1333,-3.1368,-3.1421,-3.1456,-3.1506,-3.1607,-3.1615,-3.1653,-3.1666,-3.1676,-3.1686,-3.1742,-3.1759,-3.1574,-3.1574,-3.1574,0,0,-3.1093,-3.1118,-3.1152,-3.1219,-3.1245,-3.1302,-3.1249,-3.1311,-3.1353,-3.1322,-3.1402,-3.1419,-3.1458,-3.1552,-3.1594,-3.1569,-3.174,-3.1687,-3.1695,-3.1699,-3.1752,-3.177,-3.1785,-3.1579,-3.1578,-3.1578,0,0,-3.1206,-3.1231,-3.1301,-3.1328,-3.1368,-3.1376,-3.1393,-3.1428,-3.1438,-3.1518,-3.1496,-3.1547,-3.1638,-3.1667,-3.1694,-3.1821,-3.1801,-3.1838,-3.1904,-3.1958,-3.1973,-3.1986,-3.2031,-3.2047,-3.1848,-3.1848,-3.1848,0,-3.1258,-3.1342,-3.1339,-3.1403,-3.1433,-3.1409,-3.148,-3.1507,-3.1561,-3.1583,-3.1555,-3.1669,-3.1694,-3.1794,-3.1825,-3.1848,-3.1868,-3.1832,-3.1971,-3.1984,-3.1996,-3.2039,-3.2056,-3.1852,-3.1852,-3.1851,-3.1851,0,-3.1405,-3.1464,-3.1516,-3.1569,-3.1606,-3.1674,-3.1681,-3.1719,-3.1712,-3.1723,-3.1806,-3.1836,-3.1891,-3.1915,-3.1909,-3.2015,-3.1998,-3.1971,-3.1919,-3.2018,-3.2058,-3.2075,-3.1858,-3.1857,-3.1856,-3.1855,0,0,-3.155,-3.1602,-3.1621,-3.1646,-3.169,-3.1735,-3.1803,-3.1857,-3.189,-3.193,-3.1986,-3.2065,-3.204,-3.207,-3.2068,-3.2116,-3.2215,-3.2082,-3.2083,-3.2105,-3.2335,-3.2354,-3.2373,-3.2203,-3.2206,-3.2209,-3.2331,0,-3.1665,-3.1782,-3.1782,-3.189,-3.1945,-3.1924,-3.1983,-3.2017,-3.2029,-3.2078,-3.2093,-3.2148,-3.2111,-3.213,-3.2177,-3.2193,-3.2261,-3.2185,-3.2256,-3.2258,-3.2245,-3.2394,-3.2415,-3.2529,-3.2347,-3.235,-3.2352,0,-3.1815,-3.1859,-3.1973,-3.201,-3.2033,-3.2086,-3.2137,-3.2184,-3.2223,-3.2229,-3.2264,-3.2255,-3.2324,-3.2272,-3.2369,-3.2317,-3.2346,-3.2359,-3.2364,-3.2369,-3.2309,-3.2403,-3.2565,-3.2582,-3.2377,-3.2375,-3.2373,0,-3.1908,-3.1997,-3.2077,-3.2098,-3.2144,-3.2182,-3.2202,-3.2238,-3.2271,-3.2317,-3.2338,-3.2392,-3.242,-3.2462,-3.2468,-3.2429,-3.2565,-3.2513,-3.2572,-3.2572,-3.2599,-3.2597,-3.2767,-3.2621,-3.2621,-3.262,-3.262,0,-3.2036,-3.2106,-3.2119,-3.2168,-3.2247,-3.2248,-3.2326,-3.2344,-3.2376,-3.2428,-3.2414,-3.2464,-3.2469,-3.2521,-3.2526,-3.2605,-3.2618,-3.2625,-3.2626,-3.2626,-3.2625,-3.2644,-3.2635,-3.2625,-3.2624,-3.2623,-3.2622,0,-3.2152,-3.2164,-3.2249,-3.2286,-3.2298,-3.2354,-3.2386,-3.2433,-3.2445,-3.2512,-3.2528,-3.2548,-3.2608,-3.2618,-3.2689,-3.2693,-3.2787,-3.278,-3.2774,-3.2773,-3.2831,-3.2825,-3.3018,-3.3043,-3.2881,-3.2883,-3.2884,0,-3.2232,-3.2286,-3.2329,-3.2364,-3.2386,-3.2442,-3.2476,-3.248,-3.2517,-3.2566,-3.2608,-3.2667,-3.2714,-3.2812,-3.2833,-3.2888,-3.2881,-3.2945,-3.2889,-3.2888,-3.2881,-3.2877,-3.2883,-3.2955,-3.2957,-3.2958,-3.2959,0,-3.2373,-3.2377,-3.2427,-3.248,-3.2521,-3.2563,-3.2603,-3.2632,-3.2641,-3.2684,-3.2745,-3.2782,-3.2855,-3.2914,-3.2969,-3.2992,-3.2978,-3.2978,-3.2994,-3.2994,-3.2988,-3.2991,-3.2802,-3.2972,-3.2971,-3.297,-3.2969,-3.2969,-3.2473,-3.252,-3.2558,-3.2615,-3.2646,-3.2683,-3.273,-3.2749,-3.28,-3.286,-3.286,-3.2928,-3.2967,-3.304,-3.3066,-3.312,-3.3099,-3.3123,-3.3129,-3.3134,-3.3139,-3.2981,-3.313,-3.3129,-3.3129,-3.3129,-3.3129,0,-3.2612,-3.2636,-3.2689,-3.2745,-3.279,-3.2774,-3.2818,-3.2856,-3.2916,-3.2954,-3.3001,-3.3073,-3.3131,-3.3158,-3.3215,-3.3253,-3.3248,-3.3268,-3.3264,-3.327,-3.3155,-3.3134,-3.3271,-3.3271,-3.3271,-3.3271,-3.3271,-3.3271,-3.2689,-3.2768,-3.2777,-3.2872,-3.2896,-3.2962,-3.2988,-3.3024,-3.3054,-3.3135,-3.3183,-3.32,-3.3234,-3.3294,-3.3347,-3.3353,-3.3375,-3.3397,-3.3401,-3.3292,-3.3278,-3.3264,-3.3245,-3.3402,-3.3402,-3.3511,-3.3512,-3.3513]},{"header":{"parameterUnit":"m.s-1","parameterCategory":1,"la1":30.2991,"la2":30.254,"lo1":-89.0895,"lo2":-89.0444,"dy":0.0017,"dx":0.0017,"nx":28,"ny":28,"refTime":"2024-03-13T21:00:00:Z","depth":0,"parameterNumber":3,"parameterNumberName":"V-component_of_WINDS"},"data":[0,0,0,0,0,0,0,0,0,0,0,0,0,0,0,0,0,0,0,0,0,0,0,0,0,0,0,0,0,0,0,0,0,0,0,0,0,0,0,0,0,0,0,0,0,0,0,0,0,0,0,0,0,0,0,0,0,0,1.5021,1.5021,0,1.4991,1.4991,1.499,1.4974,1.4974,1.4974,1.4974,1.4941,1.494,1.4939,0,0,0,0,0,0,0,0,0,0,0,0,0,1.5063,1.5063,1.5021,1.5021,1.502,1.4991,1.4991,1.499,1.4974,1.4974,1.4974,1.4974,1.4941,1.494,1.4939,0,0,0,0,0,0,0,0,0,0,0,0,0,1.504,1.5063,1.5021,1.5009,1.5007,1.4991,1.4991,1.499,1.4974,1.4974,1.4974,1.4974,1.4942,1.494,1.4939,1.4932,0,0,1.4935,1.4935,0,0,0,0,0,0,0,0,1.5042,1.5039,1.5011,1.5009,1.5008,1.4986,1.4994,1.4971,1.4974,1.4986,1.4974,1.4974,1.4956,1.4953,1.4948,1.4931,1.493,1.4935,1.4934,1.4934,1.4933,0,0,0,0,0,0,0,1.5043,1.504,1.5009,1.501,1.5009,1.5004,1.5001,1.4989,1.4972,1.4985,1.4984,1.4981,1.4955,1.4949,1.4947,1.4929,1.4935,1.4934,1.4933,1.4933,1.4907,1.4908,0,0,0,0,0,0,1.5047,1.5041,1.501,1.5008,1.5025,1.5004,1.5,1.4993,1.4972,1.4969,1.4981,1.498,1.4951,1.4949,1.4946,1.4938,1.4934,1.4933,1.4932,1.4907,1.4908,1.4908,0,0,0,0,0,0,1.5048,1.5044,1.5011,1.5025,1.502,1.5003,1.4996,1.4993,1.4987,1.4969,1.4965,1.4978,1.4951,1.4948,1.4937,1.4936,1.4932,1.4931,1.4907,1.4907,1.4908,1.4921,0,0,0,0,0,0,1.5049,1.5045,1.5042,1.5025,1.5019,1.5003,1.4996,1.4992,1.4985,1.4984,1.4965,1.4962,1.4951,1.4939,1.4935,1.4935,1.493,1.4907,1.4907,1.4908,1.4921,1.4922,1.4923,0,0,0,0,0,1.5051,1.5046,1.5042,1.5038,1.5016,1.5003,1.4999,1.4987,1.4985,1.4982,1.4971,1.4963,1.4937,1.4938,1.4934,1.4933,1.4907,1.4907,1.4907,1.492,1.4922,1.4923,0,0,0,0,0,0,1.5062,1.5043,1.5039,1.5028,1.5017,1.5,1.4996,1.4989,1.4978,1.4977,1.4962,1.4958,1.4949,1.494,1.494,1.4926,1.4921,1.4921,1.4933,1.4934,1.4935,1.4937,1.4929,0,0,0,0,0,1.5064,1.5056,1.5039,1.5032,1.5027,1.5012,1.5006,1.4998,1.4986,1.4981,1.4969,1.4957,1.4946,1.494,1.4929,1.492,1.4916,1.4918,1.4919,1.492,1.4919,1.4915,1.4916,1.4908,1.4908,1.4908,0,0,1.5066,1.5055,1.505,1.5034,1.5024,1.5016,1.5008,1.4999,1.4993,1.4979,1.4968,1.496,1.4945,1.4936,1.4931,1.4928,1.4921,1.492,1.4921,1.492,1.4916,1.4916,1.4917,1.4908,1.4908,1.4908,0,0,1.5067,1.5057,1.5051,1.5042,1.5029,1.502,1.5019,1.5003,1.4997,1.4986,1.4976,1.4969,1.4951,1.4941,1.4934,1.4935,1.4927,1.4932,1.4937,1.4934,1.4934,1.4935,1.4936,1.4936,1.4932,1.4932,1.4932,0,1.5072,1.5059,1.5048,1.504,1.5034,1.5023,1.5016,1.5008,1.4992,1.4988,1.4985,1.4964,1.4953,1.4942,1.4943,1.4937,1.4936,1.4933,1.4935,1.4936,1.4936,1.4937,1.4937,1.4932,1.4932,1.4932,1.4932,0,1.5066,1.5057,1.5054,1.504,1.5033,1.5026,1.5014,1.5008,1.5002,1.4993,1.4984,1.4971,1.4959,1.4956,1.4948,1.4944,1.4943,1.4938,1.4933,1.4937,1.4938,1.4938,1.4933,1.4933,1.4933,1.4933,0,0,1.507,1.5053,1.5052,1.5046,1.5032,1.5025,1.5018,1.5007,1.5003,1.4993,1.4987,1.4974,1.497,1.4962,1.4954,1.4951,1.4954,1.4946,1.4946,1.4948,1.495,1.4954,1.4954,1.4949,1.4949,1.4949,1.4951,0,1.5069,1.5057,1.5048,1.5039,1.5032,1.5023,1.5017,1.5008,1.5001,1.4993,1.4985,1.4976,1.4971,1.4967,1.4963,1.4954,1.4954,1.4954,1.4943,1.4943,1.4947,1.4954,1.4958,1.496,1.4951,1.4951,1.4951,0,1.5065,1.5057,1.5048,1.5037,1.5033,1.5028,1.5019,1.5012,1.5002,1.4997,1.499,1.4982,1.4975,1.4972,1.4962,1.4963,1.4958,1.4953,1.4953,1.4951,1.4947,1.4953,1.4961,1.4961,1.4951,1.4951,1.4951,0,1.507,1.5057,1.505,1.5046,1.5032,1.5029,1.5023,1.5014,1.5008,1.5,1.4997,1.4988,1.4982,1.4976,1.4966,1.4964,1.4958,1.4953,1.4954,1.4954,1.4952,1.4952,1.496,1.495,1.495,1.495,1.495,0,1.5069,1.5064,1.5053,1.5048,1.5043,1.5034,1.5028,1.5022,1.5014,1.5008,1.5,1.4995,1.4983,1.4977,1.4969,1.4964,1.4961,1.4957,1.4955,1.4958,1.4958,1.4954,1.4954,1.495,1.495,1.495,1.495,0,1.5073,1.5065,1.5058,1.5047,1.5044,1.504,1.5031,1.5027,1.502,1.5014,1.5012,1.5001,1.4994,1.4984,1.4973,1.4968,1.4963,1.496,1.4967,1.4966,1.4967,1.4967,1.4972,1.4973,1.4962,1.4962,1.4962,0,1.5073,1.5069,1.5059,1.5055,1.505,1.5044,1.504,1.5031,1.5026,1.5017,1.5014,1.5007,1.5,1.4989,1.498,1.4972,1.4969,1.4971,1.4967,1.4971,1.4969,1.497,1.497,1.4972,1.4972,1.4972,1.4972,0,1.5073,1.5071,1.5064,1.5058,1.5053,1.5047,1.5041,1.5038,1.5028,1.5024,1.5017,1.5012,1.5003,1.4996,1.4987,1.4981,1.4975,1.4974,1.4973,1.4976,1.498,1.4978,1.4969,1.4973,1.4973,1.4973,1.4973,1.4973,1.5075,1.5072,1.5065,1.506,1.5055,1.5049,1.5046,1.504,1.5034,1.5026,1.5022,1.5016,1.5008,1.4996,1.4991,1.4986,1.4984,1.4983,1.4983,1.4983,1.4984,1.4982,1.4985,1.4985,1.4985,1.4985,1.4985,0,1.5076,1.5072,1.5067,1.5059,1.5055,1.5052,1.5045,1.5042,1.5037,1.5031,1.5025,1.5018,1.5012,1.5004,1.4997,1.4995,1.4993,1.4994,1.4994,1.4993,1.4987,1.4988,1.4996,1.4996,1.4996,1.4996,1.4996,1.4996,1.5076,1.5071,1.5068,1.5061,1.5057,1.5051,1.5048,1.5044,1.5039,1.5033,1.5028,1.5023,1.5017,1.501,1.5005,1.5002,1.5,1.5003,1.5,1.4994,1.4993,1.4992,1.4993,1.5002,1.5002,1.5006,1.5006,1.5006]}]]